This is the latest recevied weather packets stored in our database for station/object NQ9F. If no packets are shown the sender has not sent any weather packets the latest 10 day(s).
| Time | Temp. | Humidity | Pressure | Rain* | Wind** | Luminosity | Snow |
|---|---|---|---|---|---|---|---|
| 1777860199 | 20.56° C | 46% | 1015.7 hPa | 0 mm | - | 0 W/m² | - |
| 1777859895 | 21.11° C | 46% | 1015.5 hPa | 0 mm | - | 0 W/m² | - |
| 1777859592 | 21.11° C | 46% | 1015.2 hPa | 0 mm | - | 0 W/m² | - |
| 1777859288 | 21.11° C | 46% | 1015.4 hPa | 0 mm | - | 0 W/m² | - |
| 1777858984 | 21.11° C | 45% | 1015.2 hPa | 0 mm | - | 0 W/m² | - |
| 1777858682 | 21.67° C | 45% | 1015.3 hPa | 0 mm | - | 0 W/m² | - |
| 1777858380 | 21.67° C | 45% | 1015.4 hPa | 0 mm | - | 0 W/m² | - |
| 1777858076 | 21.67° C | 45% | 1015.3 hPa | 0 mm | - | 0 W/m² | - |
| 1777857774 | 21.67° C | 45% | 1015.3 hPa | 0 mm | - | 1 W/m² | - |
| 1777857470 | 22.22° C | 44% | 1015.2 hPa | 0 mm | - | 3 W/m² | - |
| 1777857167 | 22.22° C | 43% | 1015.1 hPa | 0 mm | - | 5 W/m² | - |
| 1777856863 | 22.22° C | 43% | 1015.2 hPa | 0 mm | - | 7 W/m² | - |
| 1777856559 | 22.78° C | 42% | 1015.1 hPa | 0 mm | - | 12 W/m² | - |
| 1777856256 | 22.78° C | 41% | 1015.1 hPa | 0 mm | - | 20 W/m² | - |
| 1777855953 | 23.33° C | 41% | 1014.9 hPa | 0 mm | - | 22 W/m² | - |
| 1777855651 | 23.33° C | 40% | 1014.9 hPa | 0 mm | - | 23 W/m² | - |
| 1777855347 | 23.33° C | 40% | 1014.9 hPa | 0 mm | - | 29 W/m² | - |
| 1777855044 | 23.89° C | 39% | 1014.9 hPa | 0 mm | - | 30 W/m² | - |
| 1777854741 | 23.89° C | 39% | 1015.1 hPa | 0 mm | - | 35 W/m² | - |
| 1777854438 | 24.44° C | 38% | 1015 hPa | 0 mm | - | 50 W/m² | - |
| 1777854134 | 25° C | 36% | 1014.9 hPa | 0 mm | - | 100 W/m² | - |
| 1777853833 | 25° C | 36% | 1015.1 hPa | 0 mm | - | 112 W/m² | - |
| 1777853529 | 25° C | 36% | 1015 hPa | 0 mm | - | 127 W/m² | - |
| 1777853226 | 25.56° C | 37% | 1015.3 hPa | 0 mm | - | 139 W/m² | - |
| 1777852923 | 25.56° C | 35% | 1015.4 hPa | 0 mm | - | 171 W/m² | - |
* Rain latest hour (hover to see other rain measurements)
** Current wind speed in m/s (hover to see current wind gust speed)